Temperature
13 13 13 14 14 15 15 15 15 15 15 15 15 15 15 16 16 16 16 16 16 16 16 16 16 16 16 17 17 17 17 17 17 17 17 17 17 18 18 17 17 17 17
10 12 13 14 14 14 15 15 15 15 15 15 15 15 15 15 15 16 16 16 16 16 16 16 16 16 16 16 17 17 17 17 17 17 17 17 17 18 18 17 17 17 17
10 11 13 13 13 14 14 14 15 15 15 15 15 15 15 15 15 15 15 15 15 15 16 16 16 16 16 16 16 16 17 17 17 17 17 17 17 17 17 17 17 17 17
10 11 12 12 13 13 14 14 14 14 14 14 14 15 15 15 15 15 15 15 15 15 15 16 16 16 16 16 16 16 16 17 17 17 17 17 17 17 17 17 17 17 17
10 10 11 12 12 13 13 13 14 14 14 14 14 14 14 14 14 14 14 15 15 15 15 15 16 16 16 16 16 16 16 16 16 16 17 17 16 17 17 17 17 17 17
10 10 11 12 12 13 13 13 13 13 13 14 14 14 14 14 14 14 14 14 14 14 14 15 15 15 15 16 16 16 16 16 16 16 16 16 16 17 17 17 17 17 17
10 10 11 11 12 12 12 12 12 13 13 13 13 13 13 13 13 13 13 14 14 14 14 14 14 14 14 15 15 15 15 15 15 16 16 16 16 17 17 17 17 17 17
9 10 10 11 11 11 11 11 12 12 12 12 12 13 13 13 13 13 13 13 13 13 14 14 14 14 14 15 15 15 15 15 15 15 15 16 15 16 16 17 17 17 17
9 10 10 10 11 11 11 11 11 11 11 11 11 12 12 12 12 12 12 13 13 13 13 13 13 14 14 14 15 15 15 15 15 15 15 15 15 16 16 16 17 17 17
8 9 9 10 10 10 10 10 10 10 10 10 10 11 11 12 12 12 12 12 12 12 12 12 13 13 13 14 14 15 15 15 15 15 15 15 15 16 16 16 16 17 17
8 8 8 9 9 9 9 8 8 8 8 8 8 8 9 10 10 11 12 12 12 12 12 11 12 12 13 13 14 14 14 15 15 15 15 15 15 15 15 16 16 16 16
7 7 7 7 7 7 7 7 7 6 6 6 6 5 5 6 7 8 10 10 11 11 11 11 12 12 12 12 12 13 13 14 14 14 15 15 15 15 15 15 16 16 16
5 6 6 6 6 6 6 5 5 4 4 4 4 4 4 4 5 6 7 8 9 10 10 11 12 11 11 11 12 12 12 13 13 14 14 14 14 15 15 15 15 15 15
5 6 6 6 5 4 4 4 3 3 3 2 2 2 2 2 3 4 5 5 6 6 7 9 10 11 11 11 11 11 12 12 13 13 14 14 14 14 14 15 15 15 15
4 4 4 3 3 2 2 2 2 2 1 1 1 1 1 0 0 1 2 3 3 3 5 6 7 8 9 10 11 11 11 12 12 13 13 13 13 13 14 14 15 15 15
3 2 2 2 2 2 1 1 0 0 0 0 0 0 -0 -1 -1 -1 -0 0 0 1 2 3 4 5 6 8 9 10 10 11 11 12 13 13 13 13 13 13 14 14 15
2 1 1 1 1 1 1 0 -0 -0 -0 -1 -1 -1 -1 -2 -2 -2 -2 -1 -1 -1 -0 1 2 3 4 5 7 9 10 10 11 11 12 12 13 13 13 13 14 14 14
1 0 -0 -0 0 0 -1 -1 -1 -1 -1 -1 -2 -2 -2 -3 -3 -3 -3 -3 -3 -2 -1 -1 -0 1 2 3 5 7 8 10 10 11 11 12 12 12 12 13 13 13 14
-0 -1 -1 -1 -1 -1 -2 -1 -2 -2 -2 -3 -3 -3 -3 -4 -4 -5 -5 -5 -4 -4 -3 -3 -2 -2 -1 1 2 4 6 8 9 10 10 11 12 12 12 12 13 13 13
-0 -1 -1 -2 -2 -2 -2 -2 -3 -3 -3 -4 -4 -4 -5 -5 -5 -5 -6 -6 -5 -5 -5 -5 -4 -4 -3 -2 -0 2 4 6 8 10 10 10 11 12 12 12 12 12 13
-1 -2 -2 -3 -3 -3 -4 -4 -4 -4 -4 -5 -5 -5 -5 -6 -6 -6 -6 -6 -6 -6 -6 -6 -5 -5 -4 -4 -2 1 4 5 6 8 10 10 10 11 11 12 12 12 12
-2 -3 -3 -4 -4 -5 -5 -6 -6 -6 -6 -6 -6 -6 -7 -7 -7 -7 -7 -7 -6 -6 -6 -6 -6 -5 -5 -5 -4 -3 -1 2 5 7 8 9 10 10 11 11 12 12 12
-3 -3 -4 -5 -5 -6 -6 -6 -6 -6 -6 -6 -7 -7 -7 -8 -8 -7 -8 -8 -8 -7 -7 -6 -6 -6 -5 -5 -5 -4 -3 -1 -1 5 7 8 9 10 11 11 11 11 12
-3 -4 -5 -6 -6 -6 -7 -7 -8 -8 -8 -8 -8 -8 -8 -8 -8 -8 -8 -9 -9 -8 -8 -7 -7 -6 -6 -5 -5 -5 -4 -4 -3 -1 5 7 7 8 9 11 11 11 11
-4 -5 -5 -6 -6 -7 -7 -8 -8 -9 -9 -9 -9 -8 -8 -8 -9 -9 -9 -9 -9 -9 -9 -8 -8 -7 -6 -6 -6 -5 -5 -4 -4 -3 -2 3 5 6 7 9 10 11 11
-4 -5 -6 -6 -7 -7 -7 -8 -9 -9 -9 -9 -9 -9 -9 -9 -9 -10 -10 -10 -10 -10 -10 -9 -9 -8 -7 -7 -6 -6 -5 -5 -4 -4 -2 -1 0 4 6 7 9 10 10
Wind_Speed
15 27 31 31 31 31 30 30 29 27 25 21 19 17 17 17 17 16 15 14 13 12 12 11 11 11 11 9 8 7 6 5 3 3 4 4 3 2 3 2 2 2 9
16 19 27 31 32 32 31 30 29 29 29 27 25 22 20 18 17 16 16 15 14 13 12 12 12 12 11 11 10 8 6 6 5 4 5 7 7 6 5 4 0 4 7
15 16 24 28 30 30 30 30 30 30 29 28 28 27 25 22 19 17 15 15 16 15 14 13 13 13 12 12 11 10 9 8 7 5 7 9 11 11 9 6 4 4 5
14 14 23 26 27 29 30 30 30 30 29 29 28 28 26 25 23 20 17 16 16 16 15 15 15 14 13 12 12 12 11 10 8 8 9 12 13 13 10 8 6 5 5
15 16 23 26 26 28 30 30 30 30 29 29 29 28 27 26 25 23 21 19 17 16 15 15 16 15 14 13 13 13 13 12 10 10 13 13 6 12 11 9 8 7 6
17 20 23 27 28 28 29 30 29 29 29 29 29 29 28 26 25 25 24 22 20 18 17 16 16 15 14 14 13 14 15 14 12 11 14 14 9 13 11 11 9 8 7
16 22 24 28 30 30 29 30 29 29 29 28 28 30 29 27 25 24 23 24 24 22 20 18 17 15 15 15 14 14 14 14 13 13 13 12 7 13 12 11 11 10 10
19 23 26 29 31 31 30 29 30 29 30 30 28 29 29 27 26 26 25 25 24 24 23 20 18 17 17 16 16 15 13 13 13 14 13 13 11 12 11 10 11 12 11
22 23 26 28 29 31 31 30 31 29 28 29 28 29 30 28 26 26 27 27 27 26 25 23 20 19 18 17 16 15 14 13 12 11 12 12 12 12 11 10 11 13 13
20 23 26 28 28 29 29 30 31 30 29 30 29 29 28 27 27 26 27 28 28 28 27 25 23 21 20 18 17 16 14 12 12 13 12 12 14 14 12 10 12 14 14
16 19 23 26 26 27 27 27 28 27 27 28 28 29 26 23 23 24 27 28 29 30 29 27 28 25 22 19 20 20 15 10 12 12 12 14 15 14 12 11 11 13 14
17 15 21 23 24 25 25 24 24 24 25 25 25 26 24 23 22 24 26 26 28 28 28 29 31 27 22 17 17 19 12 14 14 11 14 17 16 14 13 12 11 12 14
13 14 17 22 23 23 22 21 21 21 22 23 24 25 24 22 22 22 21 22 23 23 22 24 24 23 22 18 14 13 12 12 10 11 13 20 17 14 13 12 13 14 15
12 14 15 23 23 23 23 21 21 20 20 21 22 24 22 19 19 20 19 20 20 18 18 19 18 21 22 23 18 12 11 11 11 9 8 20 18 15 15 15 15 15 17
14 14 12 22 22 23 21 20 20 21 21 23 22 22 22 19 16 19 19 20 20 19 19 16 15 15 15 17 17 14 9 11 12 11 10 18 20 18 16 17 18 18 18
14 15 13 19 23 24 20 18 18 20 21 21 21 21 23 23 21 20 17 18 18 21 20 17 15 12 10 12 17 16 13 11 12 13 12 17 22 20 18 18 19 20 20
13 14 13 19 24 24 21 20 20 21 22 19 19 21 23 23 23 22 17 15 19 23 22 18 16 13 11 13 16 18 16 13 11 10 10 10 15 20 20 19 19 20 21
12 13 12 19 20 22 21 20 20 21 22 20 19 19 22 24 23 21 16 15 22 23 20 13 12 13 13 12 13 14 15 15 17 13 9 8 8 13 19 22 20 21 21
12 13 13 14 16 20 20 20 20 20 21 21 20 18 21 21 23 21 18 17 20 17 15 13 14 13 14 14 14 13 12 14 15 16 14 9 8 8 11 19 23 23 22
11 12 12 12 17 20 18 18 15 16 18 20 19 20 22 22 23 20 18 20 20 13 11 12 14 13 12 14 15 15 14 13 14 14 16 11 7 9 11 11 14 18 23
10 12 13 13 14 14 11 11 11 11 11 13 18 21 22 22 23 20 17 18 18 12 13 15 15 15 13 12 12 14 12 11 13 13 13 12 10 8 9 11 12 12 14
10 11 12 12 13 13 11 11 9 9 9 13 18 20 21 22 21 20 18 14 16 12 12 14 15 11 11 11 11 11 7 8 7 11 10 11 12 9 9 8 11 11 11
10 11 14 12 12 14 18 14 12 7 9 9 10 8 19 22 21 18 18 18 15 11 11 14 14 14 11 10 9 7 6 6 12 11 12 12 10 7 8 8 10 10 13
9 9 10 11 9 13 16 11 13 12 12 13 11 9 18 22 21 18 17 18 16 13 12 14 14 14 12 11 9 7 9 10 7 8 12 12 14 13 11 8 9 10 11
9 8 9 10 9 11 13 10 10 10 10 10 11 12 10 17 20 20 19 17 15 12 11 12 15 15 12 11 10 8 8 9 11 9 14 16 12 11 11 12 8 7 8
9 8 9 10 10 9 10 9 10 11 11 13 13 12 11 9 13 18 21 19 17 13 12 13 13 16 14 13 11 10 9 8 9 9 11 17 17 15 14 11 10 6 6
Wind_Direction
339 342 350 11 19 22 23 23 20 17 10 3 358 356 355 353 351 349 345 344 343 341 339 336 331 328 324 323 319 316 308 305 301 300 284 279 264 201 162 181 283 206 135
319 347 359 15 20 21 22 22 22 21 20 15 8 359 353 348 345 342 340 338 336 335 335 334 329 321 314 310 305 299 284 276 276 267 263 257 242 219 193 193 312 123 141
333 8 7 17 22 22 22 23 22 20 18 16 14 8 2 353 345 338 336 333 329 327 326 326 326 320 310 303 295 286 273 260 259 254 254 254 230 215 201 194 177 152 143
345 28 16 16 21 21 21 21 20 18 17 16 13 9 5 2 357 350 343 338 331 325 323 321 317 313 306 297 288 279 270 259 253 253 254 249 225 208 198 191 188 187 168
5 30 24 17 18 20 20 19 17 15 14 13 12 9 6 3 3 1 354 348 340 329 322 319 312 307 305 298 285 275 267 260 248 250 262 269 196 176 189 190 191 191 177
16 20 22 18 16 16 17 15 14 13 12 10 10 7 5 4 5 5 2 357 350 341 328 317 311 304 304 301 290 275 266 258 248 243 253 260 182 173 187 189 189 186 173
17 16 15 15 13 11 11 10 8 8 8 7 8 6 2 0 2 3 2 2 355 347 338 325 314 308 306 304 296 283 270 260 246 248 257 270 216 176 185 190 191 186 179
19 16 12 12 10 7 4 7 4 3 5 2 3 4 1 359 359 360 0 358 353 348 343 332 317 308 303 300 297 291 279 263 250 244 249 259 251 193 194 203 201 195 192
23 17 13 10 8 4 359 1 0 359 2 359 359 1 359 358 358 357 358 354 352 349 344 338 324 309 301 297 296 293 284 265 251 257 254 243 233 212 208 215 216 203 197
24 17 15 7 6 3 355 358 357 355 358 357 356 358 359 357 356 355 355 351 350 348 343 339 336 321 307 297 291 287 280 268 248 247 248 240 218 212 215 219 218 206 201
19 14 13 6 3 2 356 356 354 352 355 354 352 353 356 355 355 353 351 350 350 347 345 347 344 337 322 301 283 269 260 247 241 236 233 229 216 211 212 218 216 208 205
12 9 9 4 360 2 357 354 352 350 351 350 349 348 354 355 355 353 348 349 349 346 349 347 343 340 336 320 301 282 254 240 241 232 220 217 212 214 214 216 220 217 213
7 6 6 1 358 2 356 353 350 348 348 346 347 349 355 356 353 351 347 345 343 345 349 346 343 336 329 323 311 302 273 260 247 237 211 196 199 209 218 220 223 224 221
8 6 4 1 357 359 355 353 351 347 347 345 347 352 358 358 351 349 344 340 339 343 345 344 335 329 329 324 315 301 284 267 259 257 218 181 188 204 224 231 230 229 226
6 3 2 358 358 356 355 356 350 347 349 346 346 352 5 359 350 348 339 338 337 345 344 334 327 329 329 324 320 316 297 286 270 246 237 195 192 202 223 234 235 234 230
4 3 0 357 360 355 354 354 349 349 346 344 345 353 10 360 351 345 337 337 340 344 336 330 329 328 326 326 325 323 315 298 287 265 241 209 200 204 216 227 233 236 235
4 2 1 357 359 354 349 353 352 350 343 342 347 353 8 359 352 344 339 338 345 342 336 336 330 333 332 330 326 324 321 317 304 283 262 229 203 209 214 221 227 233 237
7 2 2 358 356 351 348 355 351 348 343 341 346 354 1 352 349 344 339 343 345 341 339 338 340 340 332 327 323 318 315 314 313 305 288 267 221 204 213 219 221 227 233
12 360 357 357 357 351 350 353 346 346 343 340 344 356 356 349 346 344 335 341 341 338 340 337 336 335 332 330 324 314 313 313 310 310 301 279 260 228 199 210 217 221 226
13 1 356 358 356 351 352 348 343 345 341 339 344 351 351 349 344 342 335 337 338 335 337 332 328 333 333 331 328 323 314 308 305 298 295 286 263 245 219 204 207 221 224
10 5 355 357 353 351 353 345 343 342 337 334 344 346 347 346 342 340 339 338 335 333 333 331 331 330 332 331 331 326 307 289 272 277 278 276 263 247 229 214 206 203 214
10 6 353 356 352 351 351 342 341 333 328 332 342 339 341 341 341 341 343 340 337 332 329 330 328 326 329 338 330 325 320 312 345 308 293 274 257 239 235 222 207 206 205
13 8 353 350 351 350 348 343 341 329 332 336 337 334 338 340 336 342 343 337 333 332 329 328 327 329 327 327 331 331 324 330 329 307 312 325 322 278 239 226 214 207 209
14 7 353 346 346 347 346 343 342 339 336 333 332 329 335 336 332 338 341 338 335 333 328 327 331 324 323 323 323 315 307 307 300 309 311 312 320 320 307 265 222 206 204
15 6 351 341 342 344 344 340 337 333 329 327 328 330 331 331 331 337 339 336 332 329 328 326 325 321 318 313 309 305 300 299 287 287 293 301 313 313 317 312 290 221 197
11 1 346 342 344 343 341 336 336 331 330 330 333 332 330 327 331 336 337 333 328 328 329 324 322 318 315 310 307 303 299 294 295 289 285 293 299 304 311 307 307 277 218
Height
1584 1581 1579 1576 1573 1571 1569 1566 1564 1561 1559 1558 1556 1554 1552 1551 1550 1549 1548 1547 1547 1546 1546 1546 1546 1546 1545 1545 1545 1545 1544 1544 1545 1545 1546 1547 1546 1546 1546 1547 1547 1547 1548
1587 1583 1581 1578 1574 1572 1570 1567 1565 1563 1561 1559 1556 1554 1553 1551 1549 1547 1546 1546 1545 1544 1544 1544 1544 1544 1544 1544 1544 1544 1543 1543 1543 1543 1545 1546 1546 1546 1546 1547 1547 1547 1548
1589 1586 1582 1579 1576 1573 1570 1568 1566 1563 1561 1559 1557 1555 1553 1551 1549 1547 1546 1545 1544 1543 1542 1542 1542 1542 1542 1542 1542 1542 1542 1542 1542 1542 1543 1544 1545 1546 1546 1546 1546 1547 1548
1592 1588 1583 1580 1576 1573 1571 1568 1566 1563 1561 1559 1556 1554 1552 1550 1548 1546 1545 1543 1542 1541 1540 1540 1539 1539 1538 1538 1538 1539 1539 1539 1539 1540 1542 1543 1543 1544 1544 1545 1545 1546 1547
1594 1589 1584 1580 1577 1574 1571 1568 1565 1563 1560 1558 1556 1553 1551 1548 1546 1544 1542 1541 1540 1539 1538 1536 1536 1535 1535 1535 1535 1536 1536 1536 1537 1538 1539 1540 1541 1541 1542 1543 1544 1545 1546
1594 1590 1586 1582 1578 1575 1571 1568 1565 1562 1560 1557 1554 1552 1549 1547 1544 1542 1540 1538 1537 1535 1534 1533 1533 1532 1532 1532 1532 1532 1533 1533 1534 1535 1536 1538 1539 1539 1540 1541 1542 1543 1544
1594 1590 1587 1583 1579 1576 1573 1570 1566 1563 1560 1557 1553 1550 1547 1545 1542 1540 1538 1536 1534 1532 1531 1530 1529 1529 1529 1528 1528 1528 1528 1529 1530 1532 1533 1534 1536 1536 1537 1539 1541 1541 1542
1594 1590 1587 1583 1580 1577 1573 1570 1566 1563 1560 1556 1553 1550 1547 1543 1540 1537 1535 1533 1532 1529 1528 1527 1526 1525 1525 1524 1524 1523 1524 1525 1526 1528 1529 1531 1532 1533 1535 1536 1537 1538 1540
1594 1590 1587 1583 1580 1577 1573 1570 1566 1562 1559 1556 1552 1549 1545 1542 1539 1535 1532 1530 1528 1526 1525 1524 1522 1522 1521 1520 1520 1519 1519 1521 1522 1524 1526 1527 1528 1529 1531 1532 1534 1535 1537
1594 1590 1586 1582 1579 1575 1572 1569 1565 1562 1558 1554 1550 1546 1542 1539 1536 1533 1530 1527 1524 1522 1521 1520 1518 1517 1516 1515 1515 1515 1515 1516 1518 1520 1522 1523 1524 1525 1527 1528 1530 1532 1534
1593 1589 1585 1581 1578 1574 1570 1567 1563 1560 1556 1552 1548 1543 1539 1535 1532 1529 1526 1523 1521 1518 1516 1514 1513 1512 1511 1511 1511 1511 1512 1512 1513 1515 1516 1518 1520 1522 1523 1524 1526 1528 1530
1592 1589 1585 1581 1576 1572 1568 1564 1560 1557 1554 1550 1546 1542 1537 1532 1528 1524 1522 1519 1516 1514 1511 1509 1508 1507 1507 1506 1506 1507 1507 1507 1508 1509 1511 1513 1515 1517 1519 1520 1521 1524 1526
1594 1590 1585 1581 1576 1571 1567 1562 1558 1555 1551 1547 1544 1540 1535 1530 1525 1521 1517 1514 1511 1509 1506 1504 1503 1502 1501 1500 1500 1501 1501 1503 1504 1505 1506 1507 1509 1512 1514 1515 1516 1519 1522
1594 1590 1586 1581 1576 1571 1566 1562 1558 1553 1549 1546 1543 1539 1533 1527 1523 1518 1515 1511 1508 1505 1501 1499 1498 1497 1496 1495 1495 1495 1496 1497 1498 1500 1501 1502 1504 1506 1508 1510 1511 1514 1517
1595 1590 1585 1580 1575 1570 1565 1561 1557 1553 1549 1546 1543 1539 1533 1527 1522 1517 1513 1509 1506 1502 1498 1495 1493 1491 1490 1490 1489 1489 1490 1490 1492 1494 1495 1496 1498 1499 1501 1502 1505 1507 1510
1595 1590 1585 1579 1574 1569 1564 1560 1556 1553 1548 1544 1541 1538 1532 1527 1522 1517 1512 1507 1504 1499 1496 1493 1490 1487 1485 1484 1483 1482 1483 1483 1484 1486 1489 1490 1491 1493 1494 1496 1497 1500 1504
1595 1590 1585 1580 1574 1569 1565 1560 1556 1552 1547 1543 1539 1535 1529 1525 1521 1516 1511 1506 1502 1497 1494 1491 1488 1485 1481 1479 1478 1477 1476 1477 1478 1479 1481 1483 1484 1486 1488 1490 1491 1493 1497
1595 1590 1585 1579 1573 1568 1564 1560 1555 1550 1546 1542 1537 1533 1527 1523 1519 1514 1510 1506 1500 1495 1492 1488 1485 1481 1478 1475 1472 1471 1471 1470 1471 1472 1474 1475 1478 1480 1482 1483 1485 1488 1490
1594 1589 1583 1578 1572 1567 1562 1557 1553 1548 1544 1540 1537 1532 1526 1522 1518 1514 1510 1505 1498 1493 1490 1487 1483 1479 1475 1471 1468 1466 1465 1464 1464 1465 1467 1470 1472 1474 1476 1478 1480 1482 1484
1594 1589 1583 1578 1572 1567 1561 1556 1551 1546 1542 1538 1535 1531 1526 1521 1517 1513 1508 1503 1498 1493 1489 1486 1482 1478 1473 1469 1464 1460 1458 1458 1458 1459 1461 1464 1467 1469 1471 1473 1474 1476 1478
1593 1587 1582 1577 1571 1566 1560 1554 1548 1543 1539 1536 1533 1529 1524 1520 1515 1511 1507 1502 1498 1494 1490 1486 1482 1477 1472 1467 1461 1454 1451 1451 1452 1454 1456 1457 1460 1463 1465 1467 1468 1470 1472
1592 1587 1582 1576 1571 1566 1561 1555 1549 1543 1539 1536 1531 1527 1523 1519 1514 1511 1506 1501 1497 1493 1489 1485 1481 1477 1472 1468 1464 1457 1451 1446 1446 1447 1449 1451 1453 1456 1459 1460 1462 1464 1467
1592 1587 1582 1576 1571 1566 1560 1554 1547 1541 1537 1532 1527 1523 1520 1516 1513 1509 1504 1500 1495 1492 1488 1484 1480 1476 1471 1467 1466 1464 1459 1452 1445 1441 1441 1443 1445 1449 1452 1454 1455 1457 1460
1591 1586 1580 1575 1570 1564 1559 1553 1547 1541 1536 1531 1526 1521 1517 1513 1510 1506 1502 1498 1493 1489 1485 1481 1477 1474 1470 1466 1463 1462 1461 1457 1454 1443 1435 1435 1436 1438 1443 1447 1448 1450 1453
1590 1584 1579 1573 1568 1563 1557 1552 1546 1541 1536 1531 1525 1520 1514 1510 1506 1503 1499 1495 1491 1487 1482 1478 1473 1470 1467 1464 1461 1458 1455 1454 1452 1449 1440 1430 1429 1430 1433 1436 1440 1443 1446
1588 1582 1577 1571 1566 1561 1556 1550 1545 1540 1534 1528 1523 1517 1512 1507 1503 1499 1495 1491 1487 1484 1479 1474 1470 1467 1463 1460 1457 1454 1451 1449 1447 1446 1442 1434 1427 1424 1426 1428 1431 1435 1439